GW0632 Weather Reports


Display with metric or nautical units.
time (UTC)temp
F
wind
direction
speed
MPH
gust
MPH
rain 1hr
in
rain 24hr
in
rain mn
in
humidity
%
barometer
mb
20260503013045 48 6 0.0 0.0 0.00 0.06 0.06 99 1013.6
20260503012542 48 341 0.0 1.0 0.00 0.06 0.06 99 1013.6
20260503012038 48 8 0.0 0.0 0.00 0.06 0.06 99 1013.5
20260503011535 48 8 0.0 0.0 0.00 0.06 0.06 99 1013.4
20260503011032 48 8 0.0 0.0 0.00 0.06 0.06 99 1013.5
20260503010528 48 6 0.0 1.0 0.00 0.06 0.06 99 1013.2
20260503010026 48 11 0.0 0.0 0.00 0.06 0.06 99 1013.3
20260503005523 48 12 0.0 0.0 0.00 0.06 0.06 99 1013.4
20260503005020 48 11 0.0 0.0 0.00 0.06 0.06 99 1013.2
20260503004516 48 10 0.0 0.0 0.00 0.06 0.06 99 1013.2
20260503004015 48 10 0.0 0.0 0.00 0.06 0.06 99 1012.9
20260503003511 48 10 0.0 0.0 0.00 0.06 0.06 99 1013.0
20260503003008 48 6 0.0 0.0 0.00 0.06 0.06 99 1013.0
20260503002505 48 5 0.0 0.0 0.00 0.06 0.06 98 1013.1
20260503002001 48 0 0.0 0.0 0.00 0.06 0.06 98 1013.0
20260503001458 49 355 0.0 1.0 0.00 0.06 0.06 98 1013.1
20260503000956 49 13 0.0 0.0 0.00 0.06 0.06 98 1012.9
20260503000453 49 13 0.0 0.0 0.00 0.06 0.06 98 1013.0
20260502235950 49 4 0.0 0.0 0.00 0.06 0.06 98 1012.9
20260502235447 49 351 0.0 1.0 0.00 0.06 0.06 98 1013.2
20260502234944 49 4 0.0 0.0 0.00 0.06 0.06 97 1013.1
20260502234440 50 356 0.0 0.0 0.00 0.06 0.06 97 1013.0
20260502233938 49 353 0.0 1.0 0.00 0.06 0.06 97 1012.9
20260502233433 49 324 1.0 1.0 0.00 0.06 0.06 97 1013.2
20260502232930 50 332 1.0 1.0 0.00 0.06 0.06 97 1013.0
20260502232426 50 20 0.0 0.0 0.00 0.06 0.06 97 1012.9
20260502231923 50 6 0.0 0.0 0.00 0.06 0.06 96 1013.3
20260502231421 50 19 0.0 0.0 0.00 0.06 0.06 96 1013.0
20260502230919 50 9 0.0 0.0 0.00 0.06 0.06 96 1013.0
20260502230417 50 17 0.0 0.0 0.00 0.06 0.06 96 1013.2
20260502225915 49 14 0.0 0.0 0.00 0.06 0.06 95 1013.1
20260502225410 50 350 0.0 1.0 0.00 0.06 0.06 96 1013.0
20260502224907 49 11 0.0 0.0 0.00 0.06 0.06 96 1012.9
20260502224403 50 24 0.0 1.0 0.00 0.06 0.06 96 1013.1
20260502223900 50 23 0.0 1.0 0.00 0.06 0.06 96 1012.8
20260502223358 49 40 1.0 1.0 0.00 0.06 0.06 95 1012.9
20260502222856 50 66 1.0 2.0 0.00 0.06 0.06 94 1012.9
20260502222353 49 26 0.0 1.0 0.00 0.06 0.06 93 1012.9
20260502221849 49 18 0.0 0.0 0.05 0.06 0.06 93 1013.3
20260502221345 50 358 0.0 1.0 0.05 0.06 0.06 93 1013.0
20260502220843 50 352 0.0 1.0 0.00 0.05 0.05 93 1013.1
20260502220338 50 11 0.0 0.0 0.00 0.05 0.05 93 1013.1
20260502215835 50 335 1.0 1.0 0.07 0.05 0.05 92 1013.3
20260502215333 50 332 1.0 2.0 0.07 0.05 0.05 91 1013.3
20260502214829 50 6 0.0 1.0 0.00 0.04 0.04 90 1013.3
20260502214325 51 357 1.0 2.0 0.00 0.04 0.04 89 1013.0
20260502213824 51 281 2.0 2.0 0.00 0.04 0.04 88 1013.1
20260502213321 51 233 2.0 2.0 0.00 0.04 0.04 87 1013.2
20260502212819 51 359 1.0 3.0 0.00 0.04 0.04 86 1013.0
20260502212317 51 352 2.0 5.0 0.00 0.04 0.04 84 1012.9
20260502211814 52 4 1.0 5.0 0.00 0.04 0.04 82 1013.2
20260502211310 53 287 3.0 5.0 0.00 0.04 0.04 78 1013.1
20260502210808 53 289 0.0 3.0 0.00 0.04 0.04 79 1013.1
20260502210305 54 157 1.0 3.0 0.00 0.04 0.04 78 1012.9
20260502205802 54 264 5.0 6.0 0.00 0.04 0.04 78 1012.8
20260502205258 54 28 0.0 6.0 0.00 0.04 0.04 78 1012.6
20260502204755 54 111 4.0 8.0 0.00 0.04 0.04 76 1012.8
20260502204252 54 260 3.0 6.0 0.00 0.04 0.04 75 1012.9
20260502203749 54 247 2.0 8.0 0.00 0.04 0.04 75 1012.8
20260502203247 54 173 2.0 6.0 0.00 0.04 0.04 74 1012.8
20260502202741 55 211 3.0 5.0 0.00 0.04 0.04 73 1012.7
20260502202240 54 98 2.0 6.0 0.00 0.04 0.04 73 1012.8
20260502201738 54 311 3.0 8.0 0.00 0.04 0.04 73 1012.9
20260502201233 54 94 3.0 8.0 0.00 0.04 0.04 73 1013.3
20260502200730 54 166 4.0 8.0 0.00 0.04 0.04 73 1012.9
20260502200226 55 185 5.0 8.0 0.00 0.04 0.04 71 1013.0
20260502195725 56 269 4.0 5.0 0.00 0.04 0.04 68 1012.8
20260502195221 56 195 5.0 9.0 0.00 0.04 0.04 64 1013.0
20260502194717 55 107 1.0 9.0 0.00 0.04 0.04 70 1013.1
20260502194215 55 216 6.0 13.0 0.00 0.04 0.04 69 1013.3
20260502193710 54 219 5.0 13.0 0.00 0.04 0.04 73 1013.2
20260502193208 54 107 4.0 6.0 0.00 0.04 0.04 72 1013.4
20260502192703 56 170 6.0 8.0 0.00 0.04 0.04 72 1013.7
20260502192200 55 263 5.0 6.0 0.00 0.04 0.04 73 1013.7
20260502191657 54 282 6.0 8.0 0.00 0.04 0.04 71 1013.6
20260502191149 53 257 4.0 11.0 0.00 0.04 0.04 73 1013.6
20260502190646 54 69 1.0 6.0 0.00 0.04 0.04 74 1013.6
20260502190144 54 260 4.0 7.0 0.00 0.04 0.04 74 1013.7
20260502185638 55 326 0.0 5.0 0.00 0.04 0.04 75 1013.5
20260502185135 53 311 2.0 7.0 0.00 0.04 0.04 75 1013.5
20260502184631 52 258 3.0 6.0 0.00 0.04 0.04 82 1013.7
20260502184121 54 213 6.0 13.0 0.00 0.04 0.04 82 1013.6
20260502183618 54 218 4.0 8.0 0.00 0.04 0.04 84 1013.7
20260502183114 53 216 4.0 5.0 0.00 0.04 0.04 86 1013.9
20260502182609 51 272 2.0 7.0 0.00 0.04 0.04 88 1013.8
20260502182105 51 232 3.0 10.0 0.00 0.04 0.04 88 1013.9
20260502181603 51 228 5.0 8.0 0.00 0.04 0.04 90 1014.0
20260502181102 51 234 2.0 7.0 0.00 0.04 0.04 91 1013.7
20260502180559 51 34 1.0 5.0 0.00 0.04 0.04 92 1013.8
20260502170518 52 356 2.0 2.0 0.00 0.02 0.02 78 1014.3
20260502164001 52 3 1.0 5.0 0.00 0.01 0.01 72 1014.4
20260502163457 52 311 4.0 5.0 0.00 0.01 0.01 71 1014.3
20260502162954 53 233 4.0 6.0 0.00 0.01 0.01 69 1014.2
20260502162451 54 262 3.0 10.0 0.00 0.01 0.01 66 1014.3
20260502161948 55 246 3.0 11.0 0.00 0.01 0.01 64 1014.5
20260502161445 54 341 1.0 8.0 0.00 0.01 0.01 69 1014.2
20260502160943 54 296 1.0 5.0 0.00 0.01 0.01 71 1014.1
20260502160441 54 329 1.0 3.0 0.00 0.01 0.01 71 1014.4
20260502151924 53 7 0.0 2.0 0.00 0.01 0.01 81 1014.7
20260502151420 54 23 1.0 2.0 0.00 0.01 0.01 81 1014.8
20260502150918 54 210 2.0 5.0 0.00 0.01 0.01 79 1015.0
20260502150414 54 123 2.0 3.0 0.00 0.01 0.01 78 1014.6
20260502130300 49 22 1.0 2.0 0.00 0.00 0.00 90 1015.2
20260502123746 50 318 1.0 3.0 0.00 0.00 0.00 84 1015.7
20260502123243 50 247 3.0 3.0 0.00 0.00 0.00 84 1015.8
20260502122739 50 342 1.0 3.0 0.00 0.00 0.00 84 1015.8
20260502122235 50 329 3.0 6.0 0.00 0.00 0.00 83 1015.6
20260502121734 50 354 2.0 3.0 0.00 0.00 0.00 83 1015.6
20260502121231 50 291 4.0 7.0 0.00 0.00 0.00 83 1015.3
20260502120727 50 265 3.0 5.0 0.00 0.00 0.00 83 1015.1
20260502120224 50 274 3.0 5.0 0.00 0.00 0.00 83 1015.2
20260502115722 49 338 2.0 5.0 0.00 0.00 0.00 83 1015.1
20260502115219 49 262 3.0 3.0 0.00 0.00 0.00 83 1014.8
20260502114714 50 220 2.0 3.0 0.00 0.00 0.00 82 1014.7
20260502114212 50 191 1.0 2.0 0.00 0.00 0.00 84 1014.8
20260502113709 49 308 2.0 3.0 0.00 0.00 0.00 84 1014.7
20260502113207 49 324 2.0 2.0 0.00 0.00 0.00 85 1014.8
20260502112705 49 226 2.0 2.0 0.00 0.00 0.00 84 1014.9
20260502112202 48 1 0.0 2.0 0.00 0.00 0.00 85 1014.8
20260502111659 48 357 0.0 1.0 0.00 0.00 0.00 84 1014.7
20260502111157 48 356 0.0 3.0 0.00 0.00 0.00 84 1014.6
20260502110654 48 239 3.0 3.0 0.00 0.00 0.00 84 1015.0
20260502110151 48 240 2.0 2.0 0.00 0.00 0.00 85 1014.8
20260502105649 48 322 1.0 1.0 0.00 0.00 0.00 85 1014.6
20260502105146 48 31 1.0 1.0 0.00 0.00 0.00 84 1014.5
20260502104643 48 298 1.0 2.0 0.00 0.00 0.00 84 1014.9
20260502104141 48 310 1.0 1.0 0.00 0.00 0.00 84 1014.8
20260502103638 48 324 1.0 2.0 0.00 0.00 0.00 84 1014.4
20260502103136 48 37 1.0 1.0 0.00 0.00 0.00 84 1014.5
20260502102632 48 239 2.0 2.0 0.00 0.00 0.00 84 1014.7
20260502102129 48 261 2.0 3.0 0.00 0.00 0.00 85 1014.8
20260502101627 48 37 0.0 1.0 0.00 0.00 0.00 85 1014.5
20260502101125 48 349 1.0 2.0 0.00 0.00 0.00 85 1014.4
20260502100624 48 339 1.0 1.0 0.00 0.00 0.00 86 1014.3
20260502100121 48 299 2.0 2.0 0.00 0.00 0.00 87 1014.1
20260502091055 48 317 1.0 2.0 0.00 0.00 0.00 86 1014.3
20260502090552 47 11 1.0 2.0 0.00 0.00 0.00 87 1014.0
20260502071446 49 329 1.0 2.0 0.00 0.00 0.00 75 1014.3
20260502070944 49 330 1.0 1.0 0.00 0.00 0.00 75 1014.2
20260502070442 49 10 0.0 0.0 0.00 0.00 0.00 74 1014.1
20260502065941 50 195 1.0 1.0 0.00 0.00 0.00 74 1014.4
20260502065439 49 311 2.0 2.0 0.00 0.00 0.00 73 1014.4
20260502064936 50 3 0.0 3.0 0.00 0.00 0.00 73 1014.5
20260502064434 50 314 2.0 3.0 0.00 0.00 0.00 73 1014.5
20260502063931 49 262 2.0 3.0 0.00 0.00 0.00 73 1014.3
20260502063429 49 317 1.0 2.0 0.00 0.00 0.00 73 1014.5
20260502062926 49 356 0.0 2.0 0.00 0.00 0.00 72 1014.5
20260502062423 49 338 1.0 1.0 0.00 0.00 0.00 72 1014.4
20260502061922 49 295 2.0 3.0 0.00 0.00 0.00 72 1014.5
20260502061420 49 344 1.0 1.0 0.00 0.00 0.00 72 1014.3
20260502060915 49 344 1.0 1.0 0.00 0.00 0.00 71 1014.3
20260502060410 50 268 2.0 2.0 0.00 0.00 0.00 71 1014.5
20260502055908 50 318 1.0 2.0 0.00 0.00 0.00 71 1014.6
20260502055405 50 1 1.0 2.0 0.00 0.00 0.00 70 1014.3
20260502054900 50 359 1.0 5.0 0.00 0.00 0.00 70 1014.5
20260502054357 50 346 1.0 2.0 0.00 0.00 0.00 70 1014.6
20260502053854 50 303 2.0 3.0 0.00 0.00 0.00 69 1014.3
20260502053351 50 338 0.0 5.0 0.00 0.00 0.00 69 1014.5
20260502052849 50 318 1.0 3.0 0.00 0.00 0.00 69 1014.5
20260502052347 50 307 1.0 3.0 0.00 0.00 0.00 68 1014.4
20260502051844 50 359 0.0 1.0 0.00 0.00 0.00 68 1014.4
20260502051343 50 294 2.0 2.0 0.00 0.00 0.00 67 1014.6
20260502050839 50 251 3.0 3.0 0.00 0.00 0.00 67 1014.3
20260502050335 50 219 1.0 3.0 0.00 0.00 0.00 67 1014.6
20260502045833 50 305 1.0 2.0 0.00 0.00 0.00 66 1014.5
20260502045329 50 344 1.0 2.0 0.00 0.00 0.00 66 1014.7
20260502044827 50 330 1.0 2.0 0.00 0.00 0.00 65 1014.6
20260502044322 50 2 0.0 2.0 0.00 0.00 0.00 65 1014.6
20260502043820 51 19 0.0 1.0 0.00 0.00 0.00 65 1014.7
20260502043317 51 355 1.0 2.0 0.00 0.00 0.00 64 1014.7
20260502042817 51 339 1.0 1.0 0.00 0.00 0.00 63 1014.8
20260502042314 51 304 1.0 2.0 0.00 0.00 0.00 63 1014.6
20260502041812 50 2 0.0 0.0 0.00 0.00 0.00 64 1014.3
20260502041309 50 357 0.0 1.0 0.00 0.00 0.00 63 1014.6
20260502040806 51 356 0.0 1.0 0.00 0.00 0.00 62 1014.6
20260502040303 51 11 0.0 1.0 0.00 0.00 0.00 62 1014.7
20260502035759 51 11 0.0 1.0 0.00 0.00 0.00 61 1014.7
20260502035255 51 311 1.0 2.0 0.00 0.00 0.00 61 1014.6
20260502034753 51 263 2.0 2.0 0.00 0.00 0.00 60 1014.7
20260502034251 51 5 0.0 1.0 0.00 0.00 0.00 60 1014.6
20260502033749 51 349 1.0 2.0 0.00 0.00 0.00 60 1014.7
20260502033246 51 323 1.0 3.0 0.00 0.00 0.00 59 1014.8
20260502032743 51 358 0.0 2.0 0.00 0.00 0.00 60 1015.0
20260502032239 51 3 0.0 1.0 0.00 0.00 0.00 61 1014.8
20260502031737 50 8 0.0 1.0 0.00 0.00 0.00 60 1014.7
20260502031235 50 357 0.0 1.0 0.00 0.00 0.00 60 1014.9
20260502030733 51 257 2.0 2.0 0.00 0.00 0.00 59 1014.5
20260502030231 51 357 0.0 1.0 0.00 0.00 0.00 58 1014.5
20260502025728 51 330 1.0 2.0 0.00 0.00 0.00 58 1014.5
20260502025226 51 351 1.0 1.0 0.00 0.00 0.00 57 1014.5
20260502024723 51 340 1.0 2.0 0.00 0.00 0.00 57 1014.5
20260502024221 51 310 2.0 2.0 0.00 0.00 0.00 56 1014.4
20260502023719 51 318 1.0 2.0 0.00 0.00 0.00 57 1014.6
20260502023216 51 247 4.0 7.0 0.00 0.00 0.00 57 1014.6
20260502022714 50 305 2.0 6.0 0.00 0.00 0.00 60 1014.5
20260502022210 47 342 1.0 5.0 0.00 0.00 0.00 69 1014.5
20260502021707 47 314 2.0 2.0 0.00 0.00 0.00 71 1014.3
20260502021204 47 3 0.0 0.0 0.00 0.00 0.00 70 1014.3
20260502020701 47 3 0.0 0.0 0.00 0.00 0.00 68 1014.2
20260502020158 48 5 0.0 1.0 0.00 0.00 0.00 68 1014.3
20260502015656 48 16 0.0 0.0 0.00 0.00 0.00 67 1014.1
20260502015152 48 25 0.0 1.0 0.00 0.00 0.00 66 1014.1
20260502014650 48 4 0.0 0.0 0.00 0.00 0.00 66 1014.1
20260502014147 48 3 0.0 0.0 0.00 0.00 0.00 66 1014.1
20260502013643 49 1 1.0 1.0 0.00 0.00 0.00 65 1014.2
20260502013138 50 21 0.0 0.0 0.00 0.00 0.00 63 1014.1